Content
SEND FEEDBACK

Daily
Averages
Monthly
Summary
United States of America

WILMINGTON, NORTH CAROLINA


Home > North America > United States > North Carolina
Elevation: 72 feet     Latitude: 34 16N     Longitude: 077 54W

WEATHER
 
SELECT A DAY
Number of Records: 211,656;   Date Range: 1/1/95 - 9/29/14
 
SHARE

PRINT THIS DATA

[ ← Previous Day ]
WEATHER ALMANAC - NOVEMBER 29, 2013
[ Next Day → ]
[ °C ]   °F
Weather ElementAverageHighLow
Temperature40.9 °F54 °F (2:53 pm)30 °F (6:53 am)
Dewpoint26.6 °F28.9 °F (6:53 pm)21.9 °F (12:53 pm)
Humidity60.4 %82 % (2:53 am)31 % (12:53 pm)
Barometer30.53 in30.58 in (10:53 pm)30.48 in (1:53 am)
Wind Speed6 mph13.8 mph (10:53 am)
Weather ElementAverage
Visibility10 mi
Wind DirectionNNE (34.8 °)

Weather ElementTotal
Precipitation---
Heating Degree Days23 (Base 65)
Averaged from 23 records on November 29, 2013
WEATHER CONDITIONS BREAKOUT
WIND DIRECTION BREAKOUT
WEATHER BY HOUR - NOVEMBER 29, 2013
[ °C ]   °F
Local TimeTemperatureDewpointHumidityBarometerVisibilityWind DirectionWind SpeedGust SpeedPrecipitationEventsConditions
1:53 AM32.0 °F26.1 °F79 %30.48 in10.0 miCalmClear
2:53 AM30.9 °F26.1 °F82 %30.49 in10.0 miCalmClear
3:53 AM30.9 °F26.1 °F82 %30.48 in10.0 miCalmClear
4:53 AM30.9 °F26.1 °F82 %30.49 in10.0 miCalmClear
5:53 AM30.9 °F26.1 °F82 %30.50 in10.0 miNNE (20°)3.5 mphClear
6:53 AM30.0 °F25.0 °F82 %30.51 in10.0 miNNE (20°)3.5 mphClear
7:53 AM34.0 °F27.0 °F75 %30.54 in10.0 miCalmClear
8:53 AM39.9 °F28.0 °F63 %30.55 in10.0 miNorth (10°)5.8 mphClear
9:53 AM46.9 °F27.0 °F46 %30.56 in10.0 miNNE (20°)8.1 mphClear
10:53 AM50.0 °F24.1 °F36 %30.55 in10.0 miNNE (20°)13.8 mphClear
11:53 AM53.1 °F24.1 °F32 %30.52 in10.0 miNNE (30°)12.7 mphClear
12:53 PM52.0 °F21.9 °F31 %30.52 in10.0 miNorth (10°)10.4 mphClear
1:53 PM53.1 °F24.1 °F32 %30.51 in10.0 miNorth (350°)8.1 mphClear
2:53 PM54.0 °F27.0 °F35 %30.50 in10.0 miNorth (10°)8.1 mphClear
3:53 PM54.0 °F26.1 °F34 %30.51 in10.0 miNE (40°)9.2 mphClear
4:53 PM48.0 °F28.0 °F46 %30.51 in10.0 miNNE (30°)4.6 mphClear
5:53 PM42.1 °F28.0 °F58 %30.52 in10.0 miNNE (20°)4.6 mphClear
6:53 PM39.9 °F28.9 °F65 %30.54 in10.0 miNE (40°)8.1 mphClear
7:53 PM41.0 °F28.0 °F60 %30.55 in10.0 miNE (40°)8.1 mphClear
8:53 PM39.9 °F28.9 °F65 %30.55 in10.0 miNE (40°)8.1 mphClear
9:53 PM37.0 °F28.0 °F70 %30.57 in10.0 miNE (40°)6.9 mphClear
10:53 PM35.1 °F28.0 °F76 %30.58 in10.0 miNNE (30°)6.9 mphClear
11:53 PM36.0 °F28.9 °F76 %30.57 in10.0 miNNE (30°)8.1 mphClear
Hourly data recorded from KILM, located miles away from Wilmington, North Carolina







STORIES FROM OUR PARTNERS